User: anonymous   Login
Location: Ayer Observatory
(42.2600°N, 71.0700°W)
Time: 04:41:45
(UTC-04:00)
Language:

FO-29 - Orbit

View from above orbital plane
View from above orbital plane
View from above satellite
View from above satellite

Ground track
Ground track

The orbit data is extracted from the following two-line orbital elements,

1 24278U 96046B   19287.04667879 -.00000019  00000-0  20023-4 0  9994
2 24278  98.5556  64.6283 0349356 295.8529  60.6974 13.53093719143676
Epoch (UTC): 14 October 2019 01:07:13
Eccentricity: 0.0349356
inclination: 98.5556°
perigee height: 801 km
apogee height: 1321 km
right ascension of ascending node: 64.6283°
argument of perigee: 295.8529°
revolutions per day: 13.53093719
mean anomaly at epoch: 60.6974°
orbit number at epoch: 14367

The dashed part of the orbit path shows where the satellite is in the earth's shadow,  

DLR